GEFSSGP_con_probscp_174.txt.gz
Probability
1 1 0 0 0 0 0 0 0 0 0 0 0 0 0 0 0 0 0 0 0 3 11 21 27 26 22 19 18 17 16 12 9 8 6 5 4 3 1 0 0 0 0 0 0 0 0 0 0
1 0 0 0 0 0 0 0 0 0 0 0 0 0 0 0 0 0 0 0 0 2 9 20 27 27 24 20 19 19 17 13 9 7 6 5 4 3 3 2 1 0 0 0 0 0 0 0 0
0 0 0 0 0 0 0 0 0 0 0 0 0 0 0 0 0 0 0 0 0 2 8 19 27 27 23 20 20 20 18 13 9 7 6 6 5 4 5 4 3 1 0 0 0 0 0 0 0
0 0 0 0 0 0 0 0 0 0 0 0 0 0 0 0 0 0 0 0 0 2 8 19 25 24 21 19 19 19 16 13 10 8 7 6 6 5 5 5 3 2 0 0 0 0 0 0 0
0 0 0 0 0 0 0 0 0 0 0 0 0 0 0 0 0 0 0 0 0 1 7 17 23 23 20 19 17 15 15 13 11 9 8 7 7 6 5 4 3 1 0 0 0 0 0 0 0
0 0 0 0 0 0 0 0 0 0 0 0 0 0 0 0 0 0 0 0 0 1 5 12 20 21 19 18 15 13 12 13 12 11 9 8 7 5 4 3 2 1 0 0 0 0 0 0 0
0 0 0 0 0 0 0 0 0 0 0 0 0 0 0 0 0 0 0 0 0 1 4 8 12 14 15 16 14 12 11 11 11 10 9 8 6 4 3 3 2 1 0 0 0 0 0 0 0
0 0 0 0 0 0 0 0 0 0 0 0 0 0 0 0 0 0 0 0 1 2 4 6 7 8 10 12 12 10 9 8 8 7 6 5 4 3 3 2 2 1 0 0 0 0 0 0 0
0 0 0 0 0 0 0 0 0 0 0 0 0 0 0 0 0 0 0 0 1 2 4 5 5 6 8 10 9 6 5 5 4 4 4 3 3 3 1 1 1 0 0 0 0 0 0 0 0
0 0 0 0 0 0 0 0 0 0 0 0 0 0 0 0 0 0 0 0 0 1 3 4 5 7 9 10 9 6 4 3 3 3 3 3 3 3 1 0 0 0 0 0 0 0 0 0 0
0 0 0 0 0 0 0 0 0 0 0 0 0 0 0 0 0 0 0 0 0 1 1 2 5 7 9 10 10 8 6 4 3 2 3 3 3 3 2 1 0 0 0 0 0 0 0 0 0
0 0 0 0 0 0 0 0 0 0 0 0 0 0 0 0 0 0 0 0 0 0 1 2 5 7 9 10 10 9 7 5 3 3 2 3 3 3 2 1 0 0 0 0 0 0 0 0 0
0 0 0 0 0 0 0 0 0 0 0 0 0 0 0 0 0 0 0 0 0 0 1 3 4 6 8 11 11 8 6 4 3 3 1 1 3 3 2 1 0 0 0 0 0 0 0 0 0
0 0 0 0 0 0 0 0 0 0 0 0 0 0 0 0 0 0 0 0 0 0 1 2 3 5 8 11 11 8 6 4 3 2 1 1 2 2 1 0 0 0 0 0 0 0 0 0 0
0 0 0 0 0 0 0 0 0 0 0 0 0 0 0 0 0 0 0 0 0 0 0 1 1 3 7 11 10 8 6 4 3 2 2 2 2 1 0 0 0 0 0 0 0 0 0 0 0
0 0 0 0 0 0 0 0 0 0 0 0 0 0 0 0 0 0 0 0 0 0 0 0 1 3 6 9 9 7 6 4 3 2 2 3 2 1 0 0 0 0 0 0 0 0 0 0 0
0 0 0 0 0 0 0 0 0 0 0 0 0 0 0 0 0 0 0 0 0 0 0 0 1 3 5 8 9 7 5 4 3 3 3 3 1 0 0 0 0 0 0 0 0 0 0 0 0
0 0 0 0 0 0 0 0 0 0 0 0 0 0 0 0 0 0 0 0 0 0 0 0 2 5 7 8 9 7 5 3 3 3 3 2 1 0 0 0 0 0 0 0 0 0 0 0 0
0 0 0 0 0 0 0 0 0 0 0 0 0 0 0 0 0 0 0 0 0 0 0 0 3 7 9 8 8 6 5 4 3 3 3 1 0 0 0 0 0 0 0 0 0 0 0 0 0
0 0 0 0 0 0 0 0 0 0 0 0 0 0 0 0 0 0 0 0 0 0 0 1 3 7 9 8 7 6 4 4 4 3 2 1 0 0 0 0 0 0 0 0 0 0 0 0 0
0 0 0 0 0 0 0 0 0 0 0 0 0 0 0 0 0 0 0 0 1 1 1 1 3 7 9 9 8 6 4 4 3 3 2 1 0 0 0 0 0 0 0 0 0 0 0 0 0
0 0 0 0 0 0 0 0 0 0 0 0 0 0 0 0 0 0 0 0 1 2 3 2 4 7 9 10 9 7 4 3 3 3 2 1 0 0 0 0 0 0 0 0 0 0 0 0 0
0 0 0 0 0 0 0 0 0 0 0 0 0 0 0 0 0 0 0 1 1 2 2 3 5 7 8 10 9 7 4 3 3 3 3 1 0 0 0 0 0 0 0 0 0 0 0 0 0
0 0 0 0 0 0 0 0 0 0 0 0 0 0 0 0 0 0 1 2 2 2 2 3 5 6 7 8 9 8 5 3 3 3 3 2 1 0 0 0 0 0 0 0 0 0 0 0 0
0 0 0 0 0 0 0 0 0 0 0 0 0 0 0 0 0 0 1 2 3 3 2 3 4 4 5 7 8 8 6 4 3 3 3 2 1 0 0 0 0 0 0 0 0 0 0 0 0
0 0 0 0 0 0 0 0 0 0 0 0 0 0 0 0 0 0 0 1 2 2 2 3 3 3 4 5 6 8 7 6 4 3 3 2 1 0 0 0 0 0 0 0 0 0 0 0 0
0 0 0 0 0 0 0 0 0 0 0 0 0 0 0 0 0 0 0 0 0 0 1 1 2 2 3 4 5 7 8 7 6 4 4 3 1 0 0 0 0 0 0 0 0 0 0 0 0
0 0 0 0 0 0 0 0 0 0 0 0 0 0 0 0 0 0 0 0 0 0 0 0 1 1 2 3 4 6 7 8 7 6 6 5 2 0 0 0 0 0 0 0 0 0 0 0 0
0 0 0 0 0 0 0 0 0 0 0 0 0 0 0 0 0 0 0 0 0 0 0 0 0 0 0 1 2 3 5 6 6 6 6 6 4 2 1 0 0 0 0 0 0 0 0 0 0
0 0 0 0 0 0 0 0 0 0 0 0 0 0 0 0 0 0 0 0 0 0 0 0 0 0 0 0 1 2 3 4 4 4 5 6 5 3 2 1 0 0 0 0 0 0 0 0 0

GEFSSGP_con_probscp_180.txt.gz
Probability
0 0 0 0 0 0 0 0 0 0 0 0 0 0 0 0 0 0 0 1 6 14 21 29 41 46 45 45 44 40 33 25 19 15 12 9 6 4 3 1 0 0 0 0 0 0 0 0 0
0 0 0 0 0 0 0 0 0 0 0 0 0 0 0 0 0 0 0 2 8 16 21 29 42 48 47 46 45 40 34 27 21 17 14 11 8 5 3 2 1 1 1 0 0 0 0 0 0
0 0 0 0 0 0 0 0 0 0 0 0 0 0 0 0 0 0 1 5 11 18 23 31 43 49 47 47 45 40 35 29 22 17 16 14 10 6 4 4 4 3 2 1 0 0 0 0 0
1 0 0 0 0 0 0 0 0 0 0 0 0 0 0 0 0 0 2 5 11 17 23 34 46 49 47 45 42 38 34 29 22 18 16 14 12 8 7 7 6 4 2 1 0 0 0 0 0
2 1 0 0 0 0 0 0 0 0 0 0 0 0 0 0 0 0 1 5 10 15 23 37 49 51 46 43 39 36 32 28 23 18 15 13 12 11 10 8 7 5 3 1 0 0 0 0 0
2 1 0 0 0 0 0 0 0 0 0 0 0 0 0 0 0 0 1 6 11 14 22 36 46 48 46 43 39 35 31 27 23 18 14 12 12 12 10 8 6 5 3 1 0 0 0 0 0
1 0 0 0 0 0 0 0 0 0 0 0 0 0 0 0 0 0 2 6 11 14 21 30 34 36 39 39 36 33 28 24 20 16 13 11 11 10 8 6 5 4 1 0 0 0 0 0 0
0 0 0 0 0 0 0 0 0 0 0 0 0 0 0 0 0 1 3 7 11 14 19 24 24 24 26 27 27 26 23 19 16 13 10 9 8 7 5 4 4 3 1 0 0 0 0 0 0
0 0 0 0 0 0 0 0 0 0 0 0 0 0 0 0 1 2 5 9 12 15 18 21 20 18 18 18 18 18 17 15 12 9 6 5 5 4 3 3 2 2 1 0 0 0 0 0 0
0 0 0 0 0 0 0 0 0 0 0 0 0 0 0 1 2 3 5 9 13 15 17 18 19 17 16 15 15 14 13 12 10 7 4 3 4 3 3 1 1 1 0 0 0 0 0 0 0
0 0 0 0 0 0 0 0 0 0 0 0 0 0 0 1 2 2 4 7 11 14 15 15 16 16 15 15 14 13 12 10 9 7 4 3 3 3 3 1 0 0 0 0 0 0 0 0 0
0 0 0 0 0 0 0 0 0 0 0 0 0 0 0 0 1 1 3 6 9 11 14 14 14 15 15 15 14 13 11 9 9 8 5 3 3 3 3 2 1 0 0 0 0 0 0 0 0
0 0 0 0 0 0 0 0 0 0 0 0 0 0 0 0 0 1 3 6 8 9 12 14 14 16 17 17 16 13 10 8 8 8 6 4 3 3 3 2 1 0 0 0 0 0 0 0 0
0 0 0 0 0 0 0 0 0 0 0 0 0 0 0 0 0 1 3 6 7 8 11 13 15 17 20 20 19 14 10 8 8 8 7 5 4 3 3 2 1 0 0 0 0 0 0 0 0
0 0 0 0 0 0 0 0 0 0 0 0 0 0 0 0 0 0 2 5 7 7 9 12 16 19 21 22 20 16 12 10 10 9 7 4 3 3 3 2 1 0 0 0 0 0 0 0 0
0 0 0 0 0 0 0 0 0 0 0 0 0 0 0 0 0 0 0 3 6 7 8 11 16 20 22 23 21 18 15 13 11 10 7 4 3 3 3 1 0 0 0 0 0 0 0 0 0
0 0 0 0 0 0 0 0 0 0 0 0 0 0 0 0 0 0 0 2 6 8 10 12 15 19 22 23 22 19 16 13 10 9 7 4 3 3 2 1 0 0 0 0 0 0 0 0 0
0 0 0 0 0 0 0 0 0 0 0 0 0 0 0 0 0 0 0 1 5 10 12 14 15 17 21 24 23 20 16 12 9 7 6 5 4 3 2 1 0 0 0 0 0 0 0 0 0
0 0 0 0 0 0 0 0 0 0 0 0 0 0 0 0 0 0 0 1 5 10 13 15 15 16 20 24 23 20 16 12 10 8 7 6 4 3 1 0 0 0 0 0 0 0 0 0 0
0 0 0 0 0 0 0 0 0 0 0 0 0 0 0 0 0 0 0 2 6 9 12 14 14 14 19 25 25 22 17 14 12 9 7 6 4 2 1 0 0 0 0 0 0 0 0 0 0
0 0 0 0 0 0 0 0 0 0 0 0 0 0 0 0 0 0 0 2 6 9 10 12 11 11 17 24 27 23 18 14 12 10 8 6 3 1 0 0 0 0 0 0 0 0 0 0 0
0 0 0 0 0 0 0 0 0 0 0 0 0 0 0 0 0 0 1 3 7 9 9 9 9 9 13 21 24 21 17 13 12 11 9 6 3 1 0 0 0 0 0 0 0 0 0 0 0
0 0 0 0 0 0 0 0 0 0 0 0 0 0 0 0 0 0 1 3 7 9 8 8 8 7 10 16 19 18 14 12 12 11 9 6 4 1 0 0 0 0 0 0 0 0 0 0 0
0 0 0 0 0 0 0 0 0 0 0 0 0 0 0 0 0 0 0 1 5 7 8 7 5 6 9 14 16 14 12 10 11 10 9 7 4 2 0 0 0 0 0 0 0 0 0 0 0
0 0 0 0 0 0 0 0 0 0 0 0 0 0 0 0 0 0 0 1 4 6 6 4 2 4 8 13 15 12 9 9 9 8 8 6 4 2 1 0 0 0 0 0 0 0 0 0 0
0 0 0 0 0 0 0 0 0 0 0 0 0 0 0 0 0 0 0 1 4 6 5 2 0 2 6 11 13 9 6 7 8 7 6 5 4 2 1 0 0 0 0 0 0 0 0 0 0
0 0 0 0 0 0 0 0 0 0 0 0 0 0 0 0 0 0 0 1 4 6 4 2 0 1 3 7 9 5 3 4 7 7 5 4 3 2 1 0 0 0 0 0 0 0 0 0 0
0 0 0 0 0 0 0 0 0 0 0 0 0 0 0 0 0 0 0 1 3 4 3 2 0 0 1 3 4 2 1 1 4 6 4 3 3 2 1 0 0 0 0 0 0 0 0 0 0
0 0 0 0 0 0 0 0 0 0 0 0 0 0 0 0 0 0 0 0 1 2 2 1 0 0 0 1 2 2 1 0 2 3 3 3 3 3 2 0 0 0 0 0 0 0 0 0 0
0 0 0 0 0 0 0 0 0 0 0 0 0 0 0 0 0 0 0 0 0 0 1 0 0 0 0 1 3 3 2 1 1 2 2 3 3 3 3 1 0 0 0 0 0 0 0 0 0

GEFSSGP_con_probscp_186.txt.gz
Probability
3 2 1 0 0 0 0 0 0 0 0 0 0 0 0 0 0 0 0 0 1 5 15 25 30 34 41 48 49 44 38 35 30 27 27 24 16 9 7 6 6 4 2 0 0 0 0 0 0
2 1 0 0 0 0 0 0 0 0 0 0 0 0 0 0 0 0 0 1 3 8 17 25 29 34 42 50 50 45 39 35 30 27 26 22 16 11 8 7 6 5 3 2 1 1 1 0 0
1 0 0 0 0 0 0 0 0 0 0 0 0 0 0 0 0 0 1 3 9 15 21 26 29 33 42 49 49 43 40 37 32 27 26 23 17 13 11 9 8 7 6 5 3 2 2 1 0
0 0 0 0 0 0 0 0 0 0 0 0 0 0 0 0 0 1 4 9 15 20 24 28 30 33 40 45 44 41 40 39 34 28 27 25 19 16 15 13 10 9 9 6 5 4 3 1 0
0 0 0 0 0 0 0 0 0 0 0 0 0 0 0 0 1 4 9 15 19 21 24 27 28 32 38 42 43 42 42 42 37 31 29 25 20 18 17 15 13 11 9 7 6 4 2 1 0
1 1 1 0 0 0 0 0 0 0 0 0 0 0 0 1 5 8 12 16 19 20 21 25 28 32 38 43 44 44 45 43 39 35 31 26 21 19 17 16 14 11 9 7 5 4 1 0 0
1 1 1 0 0 0 0 0 0 0 0 0 0 0 0 2 6 10 13 16 18 18 20 24 27 30 34 40 43 43 44 43 39 35 32 28 23 20 18 16 14 12 9 6 4 2 1 0 0
0 0 0 0 0 0 0 0 0 0 0 0 0 0 0 2 6 10 13 16 17 18 21 25 25 26 27 31 35 37 37 38 36 32 28 24 21 19 17 15 14 12 9 6 3 1 0 0 0
0 0 0 0 0 0 0 0 0 0 0 0 0 0 1 4 8 11 13 14 16 17 22 25 24 23 23 24 25 27 29 30 29 26 20 15 14 14 12 11 11 10 8 5 3 1 0 0 0
0 0 0 0 0 0 0 0 0 0 0 0 0 0 2 6 11 13 13 14 15 17 21 24 24 23 23 21 18 20 22 23 22 18 13 10 10 10 9 7 7 6 5 3 1 1 0 0 0
0 0 0 0 0 0 0 0 0 0 0 0 0 0 3 7 12 14 15 14 14 17 18 18 20 22 22 17 15 16 18 18 17 15 11 10 9 8 7 6 5 3 2 1 0 0 0 0 0
0 0 0 0 0 0 0 0 0 0 0 0 0 1 4 7 11 15 17 15 13 14 14 13 13 17 18 15 13 14 16 17 16 13 11 10 9 8 7 6 4 3 1 0 0 0 0 0 0
0 0 0 0 0 0 0 0 0 0 0 0 0 2 5 7 10 14 18 17 14 12 11 10 10 11 12 13 13 13 14 15 15 12 10 10 9 8 7 6 5 3 1 0 0 0 0 0 0
0 0 0 0 0 0 0 0 0 0 0 0 0 2 5 7 10 13 16 18 15 12 11 10 9 8 8 9 11 12 13 14 13 12 10 10 9 8 7 6 5 3 1 0 0 0 0 0 0
0 0 0 0 0 0 0 0 0 0 0 0 0 1 3 6 8 11 14 17 16 13 11 10 10 8 6 6 8 11 13 13 12 11 10 10 10 9 8 6 4 2 0 0 0 0 0 0 0
0 0 0 0 0 0 0 0 0 0 0 0 0 1 2 4 6 9 12 16 16 13 11 10 9 9 7 5 6 10 11 11 11 11 11 10 10 9 8 7 4 1 0 0 0 0 0 0 0
0 0 0 0 0 0 0 0 0 0 0 0 0 0 1 2 4 7 9 12 13 13 11 10 8 8 8 7 7 9 9 9 10 11 11 10 10 9 8 7 5 2 0 0 0 0 0 0 0
0 0 0 0 0 0 0 0 0 0 0 0 0 0 0 1 2 4 6 8 11 13 12 9 7 7 9 10 9 7 6 6 7 9 11 10 10 9 8 6 4 1 0 0 0 0 0 0 0
0 0 0 0 0 0 0 0 0 0 0 0 0 0 0 0 1 2 4 6 9 12 12 9 7 7 9 12 11 8 4 4 5 7 9 9 10 9 7 6 4 1 0 0 0 0 0 0 0
0 0 0 0 0 0 0 0 0 0 0 0 0 0 0 0 0 1 3 4 7 10 11 10 8 6 8 11 11 8 5 4 5 6 7 9 10 9 7 6 4 1 0 0 0 0 0 0 0
0 0 0 0 0 0 0 0 0 0 0 0 0 0 0 0 0 1 2 3 5 8 10 10 8 7 7 8 8 8 7 6 6 6 7 8 9 8 7 6 4 2 0 0 0 0 0 0 0
0 0 0 0 0 0 0 0 0 0 0 0 0 0 0 0 0 0 1 3 4 6 8 9 8 7 6 6 6 7 8 8 7 7 6 7 7 7 6 5 4 2 1 0 0 0 0 0 0
0 0 0 0 0 0 0 0 0 0 0 0 0 0 0 0 0 0 1 2 4 6 8 9 9 7 6 6 6 7 7 7 8 7 5 5 5 6 6 4 3 3 2 1 0 0 0 0 0
0 0 0 0 0 0 0 0 0 0 0 0 0 0 0 0 0 0 1 2 4 6 8 9 8 5 4 5 5 5 5 5 5 6 5 4 3 4 5 4 3 3 3 1 0 0 0 0 0
0 0 0 0 0 0 0 0 0 0 0 0 0 0 0 0 0 0 1 2 4 6 8 8 6 3 3 3 3 3 3 2 2 4 4 4 4 4 4 3 3 3 2 1 0 0 0 0 0
0 0 0 0 0 0 0 0 0 0 0 0 0 0 0 0 0 0 1 2 4 6 7 6 4 2 1 2 1 1 1 1 1 3 4 5 4 4 4 4 4 3 1 1 0 0 0 0 0
0 0 0 0 0 0 0 0 0 0 0 0 0 0 0 0 0 0 1 2 4 6 6 6 5 3 1 0 0 0 1 1 2 3 4 4 4 4 4 5 5 3 1 0 0 0 0 0 0
0 0 0 0 0 0 0 0 0 0 0 0 0 0 0 0 0 0 0 1 3 5 6 6 6 5 2 0 1 1 2 2 2 2 2 2 3 3 4 4 4 3 1 0 0 0 0 0 0
0 0 0 0 0 0 0 0 0 0 0 0 0 0 0 0 0 0 0 0 1 3 6 6 6 5 3 2 2 2 2 2 1 1 1 1 1 2 3 3 2 2 1 0 0 0 0 0 0
0 0 0 0 0 0 0 0 0 0 0 0 0 0 0 0 0 0 0 0 0 2 5 6 6 5 3 3 3 3 2 1 0 0 1 1 1 1 2 2 2 2 1 1 0 0 0 0 0

GEFSSGP_con_probscp_192.txt.gz
Probability
3 2 1 0 0 0 0 0 0 0 0 0 0 0 0 0 0 0 0 0 0 3 11 21 27 29 30 30 29 28 30 32 33 31 27 21 17 15 13 11 10 10 8 5 2 1 1 1 1
2 1 0 0 0 0 0 0 0 0 0 0 0 0 0 0 0 0 0 0 1 6 14 21 26 27 29 31 31 29 30 31 32 30 27 24 21 18 14 11 10 10 8 7 5 3 2 2 2
2 1 0 0 0 0 0 0 0 0 0 0 0 0 0 0 0 0 0 0 2 9 16 22 25 26 28 32 34 32 32 32 31 29 27 26 24 20 16 13 12 11 11 10 9 6 4 3 3
1 0 0 0 0 0 0 0 0 0 0 0 0 0 0 0 0 0 0 1 5 11 18 22 24 25 26 30 34 34 34 34 32 30 28 27 25 23 19 17 15 14 14 13 10 7 5 3 3
0 0 0 0 0 0 0 0 0 0 0 0 0 0 0 0 0 0 1 4 7 12 17 22 24 25 25 27 31 33 33 34 35 34 32 29 28 26 22 20 19 17 17 15 12 9 7 4 4
0 0 0 0 0 0 0 0 0 0 0 0 0 0 0 0 0 0 2 6 9 12 17 20 23 24 24 24 25 29 32 33 35 37 34 30 28 27 25 23 20 20 19 17 14 11 8 5 5
0 0 0 0 0 0 0 0 0 0 0 0 0 0 0 0 1 2 5 9 11 13 16 18 19 21 21 21 21 25 28 30 33 35 32 28 25 25 25 25 23 22 21 17 14 11 8 5 5
0 0 0 0 0 0 0 0 0 0 0 0 0 0 0 1 2 5 8 11 12 14 15 16 17 18 18 17 16 18 22 26 28 29 25 21 19 20 21 21 21 21 18 15 13 9 6 4 4
0 0 0 0 0 0 0 0 0 0 0 0 0 0 0 1 3 7 10 12 13 14 14 16 16 16 15 14 12 11 14 19 22 21 18 14 13 15 14 13 15 16 14 12 11 9 5 3 1
0 0 0 0 0 0 0 0 0 0 0 0 0 0 0 1 2 5 9 12 12 13 14 15 16 15 14 12 10 9 10 13 16 17 14 12 11 11 9 7 9 11 10 9 8 7 4 1 0
0 0 0 0 0 0 0 0 0 0 0 0 0 0 0 1 2 3 6 10 11 12 13 14 15 14 12 11 9 8 9 10 13 14 14 13 11 9 7 6 7 7 7 7 6 4 1 0 0
0 0 0 0 0 0 0 0 0 0 0 0 0 1 1 2 2 3 4 7 10 11 13 14 13 11 10 9 8 7 9 9 10 11 13 12 11 9 8 7 7 6 6 6 5 2 0 0 0
0 0 0 0 0 0 0 0 0 0 0 0 0 1 2 3 3 3 3 5 7 10 12 14 12 9 7 7 7 7 7 7 8 9 10 10 9 8 8 8 7 6 6 6 4 1 0 0 0
0 0 0 0 0 0 0 0 0 0 0 0 0 1 1 2 2 2 2 4 6 9 11 13 11 9 7 5 6 7 6 5 6 7 8 8 7 5 6 7 7 6 6 5 3 1 0 0 0
0 0 0 0 0 0 0 0 0 0 0 0 0 0 0 1 1 1 1 3 5 8 10 11 11 10 7 4 4 5 4 4 4 6 7 6 5 4 4 6 6 6 6 5 2 0 0 0 0
0 0 0 0 0 0 0 0 0 0 0 0 0 0 0 0 0 1 1 2 5 7 9 10 10 8 5 4 3 4 3 3 3 4 5 5 4 3 3 4 5 6 6 4 1 0 0 0 0
0 0 0 0 0 0 0 0 0 0 0 0 0 0 0 0 1 2 1 2 4 6 7 8 8 6 4 3 4 3 3 3 3 4 5 5 4 3 2 3 4 4 5 3 1 0 0 0 0
0 0 0 0 0 0 0 0 0 0 0 0 0 0 0 0 1 1 1 1 3 5 6 6 5 5 5 5 5 4 4 4 4 4 4 4 4 3 2 3 3 3 4 3 1 0 0 0 0
0 0 0 0 0 0 0 0 0 0 0 0 0 0 0 0 0 0 0 1 3 4 5 4 5 5 6 7 7 6 6 5 5 4 3 3 3 3 3 3 3 3 3 2 1 0 0 0 0
0 0 0 0 0 0 0 0 0 0 0 0 0 0 0 0 0 0 0 1 2 3 4 4 4 5 7 8 8 7 6 6 5 4 2 1 2 4 4 3 3 3 3 2 1 0 0 0 0
0 0 0 0 0 0 0 0 0 0 0 0 0 0 0 0 0 0 0 1 1 2 3 4 4 4 6 8 8 7 6 6 5 4 2 1 1 4 5 4 3 3 3 2 1 0 0 0 0
0 0 0 0 0 0 0 0 0 0 0 0 0 0 0 0 0 0 0 0 0 1 2 3 3 4 5 7 6 6 6 6 5 4 3 1 2 3 4 4 3 3 3 2 1 0 0 0 0
0 0 0 0 0 0 0 0 0 0 0 0 0 0 0 0 0 0 0 0 0 0 1 3 4 3 4 4 4 4 4 4 5 4 3 3 3 3 3 4 3 2 3 2 1 0 0 0 0
0 0 0 0 0 0 0 0 0 0 0 0 0 0 0 0 0 0 0 0 0 0 1 3 4 3 3 2 2 2 1 1 2 3 3 3 3 3 3 3 3 3 3 2 1 0 0 0 0
0 0 0 0 0 0 0 0 0 0 0 0 0 0 0 0 0 0 0 0 0 0 1 2 4 4 3 2 1 0 0 0 0 1 1 1 2 3 3 3 3 2 2 2 2 1 0 0 0
0 0 0 0 0 0 0 0 0 0 0 0 0 0 0 0 0 0 0 0 0 0 0 1 2 4 3 1 0 0 0 0 0 0 0 1 1 2 2 3 3 2 1 2 2 1 0 0 0
0 0 0 0 0 0 0 0 0 0 0 0 0 0 0 0 0 0 0 0 0 0 0 0 1 2 2 1 0 0 0 0 0 0 1 1 1 1 1 1 2 2 1 1 2 2 1 0 0
0 0 0 0 0 0 0 0 0 0 0 0 0 0 0 0 0 0 0 0 0 0 0 0 0 1 1 0 0 0 0 0 0 0 1 1 1 0 0 0 1 1 1 1 2 2 1 0 0
0 0 0 0 0 0 0 0 0 0 0 0 0 0 0 0 0 0 0 0 0 0 0 0 0 0 0 0 0 0 0 0 0 0 0 0 0 0 0 0 0 0 0 0 1 2 2 1 0
0 0 0 0 0 0 0 0 0 0 0 0 0 0 0 0 0 0 0 0 0 0 0 0 0 0 0 0 0 0 0 0 0 0 0 0 0 0 0 0 0 0 0 0 1 2 2 1 0